Back to catalog

AE5RC

AliveScienceSSO
NORAD 66677·PAYLOAD·🇦🇿 Azerbaijan

Launched Nov 28, 2025 from Vandenberg Space Force Base

Loading…

Next Passes (next 24 hours)

TLE

FreshSource: Space-Track

Epoch: Sep 14, 2026, 10:54 UTC

1 66677U 25276M   26257.45465576  .00011136  00000-0  45144-3 0  9991
2 66677  97.4104 330.3593 0006107  70.9917 289.1982 15.24793391 44047

Track AE5RC in real time with AllMySat

Download on the App Store